����������;��������(kWh)
2015-11-16 00:00;77,35
2015-11-16 00:15;80,6
2015-11-16 00:30;80,4
2015-11-16 00:45;79,65
2015-11-16 01:00;70,95
2015-11-16 01:15;73,55
2015-11-16 01:30;72,45
2015-11-16 01:45;72,2
2015-11-16 02:00;70
2015-11-16 02:15;71,4
2015-11-16 02:30;71,8
2015-11-16 02:45;71,6
2015-11-16 03:00;68,8
2015-11-16 03:15;71,4
2015-11-16 03:30;71,45
2015-11-16 03:45;70,25
2015-11-16 04:00;67,45
2015-11-16 04:15;69,05
2015-11-16 04:30;69,6
2015-11-16 04:45;70,7
2015-11-16 05:00;70,75
2015-11-16 05:15;72,8
2015-11-16 05:30;72,1
2015-11-16 05:45;69,45
2015-11-16 06:00;73,95
2015-11-16 06:15;76,9
2015-11-16 06:30;81,1
2015-11-16 06:45;80,8
2015-11-16 07:00;77,05
2015-11-16 07:15;81,05
2015-11-16 07:30;75,1
2015-11-16 07:45;80,15
2015-11-16 08:00;84,3
2015-11-16 08:15;90,9
2015-11-16 08:30;89,95
2015-11-16 08:45;94,65
2015-11-16 09:00;99,05
2015-11-16 09:15;106,5
2015-11-16 09:30;107,65
2015-11-16 09:45;108,35
2015-11-16 10:00;108,6
2015-11-16 10:15;118,55
2015-11-16 10:30;122,4
2015-11-16 10:45;111,5
2015-11-16 11:00;113,5
2015-11-16 11:15;121,6
2015-11-16 11:30;128,15
2015-11-16 11:45;120,85
2015-11-16 12:00;115,35
2015-11-16 12:15;112,9
2015-11-16 12:30;115,65
2015-11-16 12:45;114,5
2015-11-16 13:00;119,3
2015-11-16 13:15;117,65
2015-11-16 13:30;118,95
2015-11-16 13:45;120,4
2015-11-16 14:00;123
2015-11-16 14:15;121,35
2015-11-16 14:30;118,9
2015-11-16 14:45;115,25
2015-11-16 15:00;116,9
2015-11-16 15:15;115,05
2015-11-16 15:30;112,45
2015-11-16 15:45;108
2015-11-16 16:00;105,8
2015-11-16 16:15;112,65
2015-11-16 16:30;115,35
2015-11-16 16:45;113,2
2015-11-16 17:00;113,15
2015-11-16 17:15;107,5
2015-11-16 17:30;108,75
2015-11-16 17:45;115,9
2015-11-16 18:00;110
2015-11-16 18:15;113,45
2015-11-16 18:30;108,1
2015-11-16 18:45;108,4
2015-11-16 19:00;107,35
2015-11-16 19:15;104,9
2015-11-16 19:30;105,35
2015-11-16 19:45;105,65
2015-11-16 20:00;104,5
2015-11-16 20:15;100,3
2015-11-16 20:30;96,5
2015-11-16 20:45;92,9
2015-11-16 21:00;94,5
2015-11-16 21:15;87,5
2015-11-16 21:30;87,9
2015-11-16 21:45;82,45
2015-11-16 22:00;80,3
2015-11-16 22:15;86,25
2015-11-16 22:30;83,75
2015-11-16 22:45;83,3
2015-11-16 23:00;83,15
2015-11-16 23:15;81,8
2015-11-16 23:30;74,2
2015-11-16 23:45;73,7
2015-11-17 00:00;73,05
2015-11-17 00:15;72,15
2015-11-17 00:30;72,5
2015-11-17 00:45;71,9
2015-11-17 01:00;73
2015-11-17 01:15;72,35
2015-11-17 01:30;72,3
2015-11-17 01:45;72,55
2015-11-17 02:00;71,3
2015-11-17 02:15;72,85
2015-11-17 02:30;72,25
2015-11-17 02:45;72,35
2015-11-17 03:00;71
2015-11-17 03:15;71,45
2015-11-17 03:30;70,3
2015-11-17 03:45;71,6
2015-11-17 04:00;71,2
2015-11-17 04:15;69,7
2015-11-17 04:30;69,8
2015-11-17 04:45;70,35
2015-11-17 05:00;71,85
2015-11-17 05:15;71,2
2015-11-17 05:30;71
2015-11-17 05:45;72
2015-11-17 06:00;72,35
2015-11-17 06:15;75,05
2015-11-17 06:30;75,9
2015-11-17 06:45;74,2
2015-11-17 07:00;72,05
2015-11-17 07:15;76,25
2015-11-17 07:30;68,65
2015-11-17 07:45;71,15
2015-11-17 08:00;72,35
2015-11-17 08:15;72,2
2015-11-17 08:30;73,35
2015-11-17 08:45;68,7
2015-11-17 09:00;69,65
2015-11-17 09:15;70,85
2015-11-17 09:30;71,4
2015-11-17 09:45;71,3
2015-11-17 10:00;71
2015-11-17 10:15;71,85
2015-11-17 10:30;78,2
2015-11-17 10:45;78,6
2015-11-17 11:00;73,15
2015-11-17 11:15;79,1
2015-11-17 11:30;82,2
2015-11-17 11:45;84,35
2015-11-17 12:00;82,3
2015-11-17 12:15;84,3
2015-11-17 12:30;85,35
2015-11-17 12:45;77,3
2015-11-17 13:00;75,95
2015-11-17 13:15;76,95
2015-11-17 13:30;75,9
2015-11-17 13:45;77,45
2015-11-17 14:00;79,8
2015-11-17 14:15;78,85
2015-11-17 14:30;79,75
2015-11-17 14:45;85,25
2015-11-17 15:00;80,7
2015-11-17 15:15;82,5
2015-11-17 15:30;75,15
2015-11-17 15:45;76,8
2015-11-17 16:00;78,55
2015-11-17 16:15;75,8
2015-11-17 16:30;76,6
2015-11-17 16:45;76,3
2015-11-17 17:00;81,55
2015-11-17 17:15;81,65
2015-11-17 17:30;79,25
2015-11-17 17:45;84,45
2015-11-17 18:00;86,25
2015-11-17 18:15;89,95
2015-11-17 18:30;84,5
2015-11-17 18:45;83,95
2015-11-17 19:00;83,9
2015-11-17 19:15;89,5
2015-11-17 19:30;91,3
2015-11-17 19:45;88,8
2015-11-17 20:00;86,6
2015-11-17 20:15;89,55
2015-11-17 20:30;91,4
2015-11-17 20:45;83,95
2015-11-17 21:00;83,65
2015-11-17 21:15;80,05
2015-11-17 21:30;85,15
2015-11-17 21:45;81
2015-11-17 22:00;76,65
2015-11-17 22:15;76,55
2015-11-17 22:30;78,05
2015-11-17 22:45;76,95
2015-11-17 23:00;75,2
2015-11-17 23:15;72,75
2015-11-17 23:30;71,65
2015-11-17 23:45;77,45
2015-11-18 00:00;78,85
2015-11-18 00:15;77,6
2015-11-18 00:30;78,8
2015-11-18 00:45;77,25
2015-11-18 01:00;69,95
2015-11-18 01:15;70,2
2015-11-18 01:30;69,5
2015-11-18 01:45;70,1
2015-11-18 02:00;69,15
2015-11-18 02:15;70,25
2015-11-18 02:30;69,1
2015-11-18 02:45;69,1
2015-11-18 03:00;68,9
2015-11-18 03:15;68
2015-11-18 03:30;69,05
2015-11-18 03:45;68,75
2015-11-18 04:00;68,15
2015-11-18 04:15;68,95
2015-11-18 04:30;68,8
2015-11-18 04:45;69,55
2015-11-18 05:00;71,35
2015-11-18 05:15;71,85
2015-11-18 05:30;71,95
2015-11-18 05:45;70,9
2015-11-18 06:00;73,4
2015-11-18 06:15;74
2015-11-18 06:30;75,95
2015-11-18 06:45;77,25
2015-11-18 07:00;72,9
2015-11-18 07:15;79,5
2015-11-18 07:30;71,7
2015-11-18 07:45;77,7
2015-11-18 08:00;80,7
2015-11-18 08:15;86,3
2015-11-18 08:30;87,65
2015-11-18 08:45;95,25
2015-11-18 09:00;101,3
2015-11-18 09:15;104,7
2015-11-18 09:30;106,7
2015-11-18 09:45;110,25
2015-11-18 10:00;112,45
2015-11-18 10:15;113,2
2015-11-18 10:30;119,15
2015-11-18 10:45;124,25
2015-11-18 11:00;126,9
2015-11-18 11:15;131,3
2015-11-18 11:30;131,35
2015-11-18 11:45;126,25
2015-11-18 12:00;135,7
2015-11-18 12:15;134
2015-11-18 12:30;139,9
2015-11-18 12:45;139,15
2015-11-18 13:00;138,9
2015-11-18 13:15;127,85
2015-11-18 13:30;133,65
2015-11-18 13:45;129,15
2015-11-18 14:00;132,15
2015-11-18 14:15;132,85
2015-11-18 14:30;131,3
2015-11-18 14:45;130,45
2015-11-18 15:00;127,6
2015-11-18 15:15;120,45
2015-11-18 15:30;120,15
2015-11-18 15:45;116,05
2015-11-18 16:00;112,4
2015-11-18 16:15;112,2
2015-11-18 16:30;114,3
2015-11-18 16:45;113,7
2015-11-18 17:00;109,9
2015-11-18 17:15;115,9
2015-11-18 17:30;113,4
2015-11-18 17:45;119,1
2015-11-18 18:00;122,6
2015-11-18 18:15;119,05
2015-11-18 18:30;114,45
2015-11-18 18:45;112,25
2015-11-18 19:00;109,65
2015-11-18 19:15;112,1
2015-11-18 19:30;107,5
2015-11-18 19:45;105,3
2015-11-18 20:00;104,55
2015-11-18 20:15;100,45
2015-11-18 20:30;100,6
2015-11-18 20:45;99
2015-11-18 21:00;94,4
2015-11-18 21:15;88,5
2015-11-18 21:30;90
2015-11-18 21:45;87,3
2015-11-18 22:00;82,2
2015-11-18 22:15;86,9
2015-11-18 22:30;85,85
2015-11-18 22:45;83,9
2015-11-18 23:00;83,35
2015-11-18 23:15;83,7
2015-11-18 23:30;80,15
2015-11-18 23:45;73,4
2015-11-19 00:00;72,65
2015-11-19 00:15;71,7
2015-11-19 00:30;72
2015-11-19 00:45;71,35
2015-11-19 01:00;71,45
2015-11-19 01:15;72,65
2015-11-19 01:30;71,4
2015-11-19 01:45;72,95
2015-11-19 02:00;71,35
2015-11-19 02:15;70,9
2015-11-19 02:30;71,45
2015-11-19 02:45;72,4
2015-11-19 03:00;70,1
2015-11-19 03:15;71
2015-11-19 03:30;70,1
2015-11-19 03:45;70,6
2015-11-19 04:00;69,05
2015-11-19 04:15;68,15
2015-11-19 04:30;68
2015-11-19 04:45;71,5
2015-11-19 05:00;72,3
2015-11-19 05:15;71,5
2015-11-19 05:30;71,3
2015-11-19 05:45;69,75
2015-11-19 06:00;75,05
2015-11-19 06:15;74,15
2015-11-19 06:30;76,15
2015-11-19 06:45;78,45
2015-11-19 07:00;74,85
2015-11-19 07:15;80,3
2015-11-19 07:30;77,4
2015-11-19 07:45;83,95
2015-11-19 08:00;84,35
2015-11-19 08:15;86,7
2015-11-19 08:30;92,3
2015-11-19 08:45;95,85
2015-11-19 09:00;102,25
2015-11-19 09:15;112,65
2015-11-19 09:30;115,15
2015-11-19 09:45;118,65
2015-11-19 10:00;120,4
2015-11-19 10:15;115,75
2015-11-19 10:30;117,6
2015-11-19 10:45;123,9
2015-11-19 11:00;126,65
2015-11-19 11:15;134,6
2015-11-19 11:30;136,9
2015-11-19 11:45;134,45
2015-11-19 12:00;137,4
2015-11-19 12:15;133,5
2015-11-19 12:30;136,7
2015-11-19 12:45;142
2015-11-19 13:00;142,95
2015-11-19 13:15;141,35
2015-11-19 13:30;142,9
2015-11-19 13:45;142,7
2015-11-19 14:00;143,4
2015-11-19 14:15;142,85
2015-11-19 14:30;138,65
2015-11-19 14:45;139,6
2015-11-19 15:00;133,75
2015-11-19 15:15;132,05
2015-11-19 15:30;133,9
2015-11-19 15:45;132,2
2015-11-19 16:00;123,3
2015-11-19 16:15;125,05
2015-11-19 16:30;124,75
2015-11-19 16:45;123,45
2015-11-19 17:00;122,55
2015-11-19 17:15;120,05
2015-11-19 17:30;125,4
2015-11-19 17:45;130,95
2015-11-19 18:00;124,3
2015-11-19 18:15;123,4
2015-11-19 18:30;118,9
2015-11-19 18:45;118,85
2015-11-19 19:00;120,05
2015-11-19 19:15;116,35
2015-11-19 19:30;120,35
2015-11-19 19:45;117,7
2015-11-19 20:00;107,6
2015-11-19 20:15;112,35
2015-11-19 20:30;111,25
2015-11-19 20:45;108,5
2015-11-19 21:00;105,55
2015-11-19 21:15;102,15
2015-11-19 21:30;100,75
2015-11-19 21:45;102,8
2015-11-19 22:00;88,6
2015-11-19 22:15;84,15
2015-11-19 22:30;82,9
2015-11-19 22:45;83,45
2015-11-19 23:00;80,25
2015-11-19 23:15;78,9
2015-11-19 23:30;77,55
2015-11-19 23:45;76,95
2015-11-20 00:00;74,8
2015-11-20 00:15;75,7
2015-11-20 00:30;75,5
2015-11-20 00:45;76,1
2015-11-20 01:00;74,55
2015-11-20 01:15;73,7
2015-11-20 01:30;73,6
2015-11-20 01:45;73,95
2015-11-20 02:00;73,9
2015-11-20 02:15;74,7
2015-11-20 02:30;73,25
2015-11-20 02:45;74,25
2015-11-20 03:00;73,7
2015-11-20 03:15;73,1
2015-11-20 03:30;73,65
2015-11-20 03:45;78,9
2015-11-20 04:00;77,85
2015-11-20 04:15;78,85
2015-11-20 04:30;78,15
2015-11-20 04:45;77,7
2015-11-20 05:00;72,65
2015-11-20 05:15;74,9
2015-11-20 05:30;73,7
2015-11-20 05:45;74,25
2015-11-20 06:00;73,45
2015-11-20 06:15;79,8
2015-11-20 06:30;78,45
2015-11-20 06:45;77,15
2015-11-20 07:00;74,75
2015-11-20 07:15;79,4
2015-11-20 07:30;77,7
2015-11-20 07:45;79,85
2015-11-20 08:00;83,05
2015-11-20 08:15;86,95
2015-11-20 08:30;94,05
2015-11-20 08:45;95,9
2015-11-20 09:00;100,65
2015-11-20 09:15;111,55
2015-11-20 09:30;114,2
2015-11-20 09:45;112,85
2015-11-20 10:00;114,15
2015-11-20 10:15;117,25
2015-11-20 10:30;120,45
2015-11-20 10:45;117,95
2015-11-20 11:00;119,75
2015-11-20 11:15;132
2015-11-20 11:30;132,85
2015-11-20 11:45;130,2
2015-11-20 12:00;127,8
2015-11-20 12:15;126,05
2015-11-20 12:30;125,2
2015-11-20 12:45;129,1
2015-11-20 13:00;129,75
2015-11-20 13:15;128,55
2015-11-20 13:30;132,9
2015-11-20 13:45;130
2015-11-20 14:00;131,25
2015-11-20 14:15;131,65
2015-11-20 14:30;128,7
2015-11-20 14:45;131,15
2015-11-20 15:00;125,05
2015-11-20 15:15;121,5
2015-11-20 15:30;123,8
2015-11-20 15:45;119,55
2015-11-20 16:00;114,35
2015-11-20 16:15;113,25
2015-11-20 16:30;113,65
2015-11-20 16:45;114,8
2015-11-20 17:00;110,15
2015-11-20 17:15;110,35
2015-11-20 17:30;114,6
2015-11-20 17:45;115
2015-11-20 18:00;108,95
2015-11-20 18:15;105,15
2015-11-20 18:30;104,35
2015-11-20 18:45;104,15
2015-11-20 19:00;102,5
2015-11-20 19:15;104,1
2015-11-20 19:30;105,2
2015-11-20 19:45;98,9
2015-11-20 20:00;99,7
2015-11-20 20:15;102,55
2015-11-20 20:30;103,15
2015-11-20 20:45;99,7
2015-11-20 21:00;93,65
2015-11-20 21:15;93,55
2015-11-20 21:30;90
2015-11-20 21:45;90,1
2015-11-20 22:00;82,5
2015-11-20 22:15;79,9
2015-11-20 22:30;78,7
2015-11-20 22:45;77
2015-11-20 23:00;77,1
2015-11-20 23:15;73,9
2015-11-20 23:30;70,95
2015-11-20 23:45;69,55
2015-11-21 00:00;70
2015-11-21 00:15;67,75
2015-11-21 00:30;68,8
2015-11-21 00:45;68,75
2015-11-21 01:00;68,15
2015-11-21 01:15;68,35
2015-11-21 01:30;66,9
2015-11-21 01:45;67,8
2015-11-21 02:00;66,85
2015-11-21 02:15;66,55
2015-11-21 02:30;68,3
2015-11-21 02:45;67,05
2015-11-21 03:00;68,15
2015-11-21 03:15;66,8
2015-11-21 03:30;68,7
2015-11-21 03:45;67,3
2015-11-21 04:00;66,5
2015-11-21 04:15;70,5
2015-11-21 04:30;71,8
2015-11-21 04:45;73,05
2015-11-21 05:00;76,05
2015-11-21 05:15;76,15
2015-11-21 05:30;69,3
2015-11-21 05:45;67,75
2015-11-21 06:00;73,4
2015-11-21 06:15;70,35
2015-11-21 06:30;69,65
2015-11-21 06:45;70,75
2015-11-21 07:00;69,2
2015-11-21 07:15;73,7
2015-11-21 07:30;66,85
2015-11-21 07:45;65,6
2015-11-21 08:00;63,75
2015-11-21 08:15;65,05
2015-11-21 08:30;65,55
2015-11-21 08:45;65,15
2015-11-21 09:00;63,2
2015-11-21 09:15;60,15
2015-11-21 09:30;59,5
2015-11-21 09:45;64,15
2015-11-21 10:00;64,85
2015-11-21 10:15;65,9
2015-11-21 10:30;69,1
2015-11-21 10:45;70,35
2015-11-21 11:00;69,65
2015-11-21 11:15;77,25
2015-11-21 11:30;74,3
2015-11-21 11:45;73,15
2015-11-21 12:00;74,8
2015-11-21 12:15;70,45
2015-11-21 12:30;70,7
2015-11-21 12:45;70,25
2015-11-21 13:00;77,45
2015-11-21 13:15;74,25
2015-11-21 13:30;73,7
2015-11-21 13:45;72,85
2015-11-21 14:00;72,6
2015-11-21 14:15;72,55
2015-11-21 14:30;77,45
2015-11-21 14:45;72,7
2015-11-21 15:00;74,95
2015-11-21 15:15;75,6
2015-11-21 15:30;80,05
2015-11-21 15:45;81,15
2015-11-21 16:00;82,8
2015-11-21 16:15;78,9
2015-11-21 16:30;81,95
2015-11-21 16:45;74,9
2015-11-21 17:00;73,3
2015-11-21 17:15;74,3
2015-11-21 17:30;79,1
2015-11-21 17:45;81,8
2015-11-21 18:00;82
2015-11-21 18:15;84,15
2015-11-21 18:30;89,05
2015-11-21 18:45;88,15
2015-11-21 19:00;85,45
2015-11-21 19:15;84,05
2015-11-21 19:30;85,2
2015-11-21 19:45;87,3
2015-11-21 20:00;92,45
2015-11-21 20:15;87,4
2015-11-21 20:30;85,6
2015-11-21 20:45;85,8
2015-11-21 21:00;80,75
2015-11-21 21:15;78,4
2015-11-21 21:30;80,4
2015-11-21 21:45;72,55
2015-11-21 22:00;72,6
2015-11-21 22:15;72,1
2015-11-21 22:30;71,85
2015-11-21 22:45;71,4
2015-11-21 23:00;69,8
2015-11-21 23:15;67,45
2015-11-21 23:30;68,75
2015-11-21 23:45;67,75
2015-11-22 00:00;68
2015-11-22 00:15;67,8
2015-11-22 00:30;71,9
2015-11-22 00:45;73,8
2015-11-22 01:00;73,3
2015-11-22 01:15;73,6
2015-11-22 01:30;66,35
2015-11-22 01:45;69,35
2015-11-22 02:00;68,55
2015-11-22 02:15;67,15
2015-11-22 02:30;66,65
2015-11-22 02:45;67,4
2015-11-22 03:00;68,05
2015-11-22 03:15;66,7
2015-11-22 03:30;66
2015-11-22 03:45;66,95
2015-11-22 04:00;65,75
2015-11-22 04:15;67,15
2015-11-22 04:30;66,95
2015-11-22 04:45;66,2
2015-11-22 05:00;67,6
2015-11-22 05:15;68,55
2015-11-22 05:30;67,75
2015-11-22 05:45;65,3
2015-11-22 06:00;71,45
2015-11-22 06:15;71,25
2015-11-22 06:30;74,3
2015-11-22 06:45;73,8
2015-11-22 07:00;72,5
2015-11-22 07:15;75,65
2015-11-22 07:30;69,05
2015-11-22 07:45;69,75
2015-11-22 08:00;71,8
2015-11-22 08:15;67,8
2015-11-22 08:30;69,35
2015-11-22 08:45;63,1
2015-11-22 09:00;61,75
2015-11-22 09:15;59,95
2015-11-22 09:30;61,6
2015-11-22 09:45;63,7
2015-11-22 10:00;59,1
2015-11-22 10:15;62,3
2015-11-22 10:30;64,65
2015-11-22 10:45;62,85
2015-11-22 11:00;62,2
2015-11-22 11:15;64,05
2015-11-22 11:30;63,95
2015-11-22 11:45;64,7
2015-11-22 12:00;63,35
2015-11-22 12:15;65,25
2015-11-22 12:30;64,3
2015-11-22 12:45;63,9
2015-11-22 13:00;66,3
2015-11-22 13:15;62,25
2015-11-22 13:30;65,05
2015-11-22 13:45;68,55
2015-11-22 14:00;72,2
2015-11-22 14:15;76,45
2015-11-22 14:30;74,3
2015-11-22 14:45;73,95
2015-11-22 15:00;73,9
2015-11-22 15:15;70,25
2015-11-22 15:30;67
2015-11-22 15:45;64,5
2015-11-22 16:00;70,7
2015-11-22 16:15;69
2015-11-22 16:30;69,4
2015-11-22 16:45;66,15
2015-11-22 17:00;74,7
2015-11-22 17:15;75,65
2015-11-22 17:30;75,15
2015-11-22 17:45;75,8
2015-11-22 18:00;77,15
2015-11-22 18:15;73,9
2015-11-22 18:30;73,65
2015-11-22 18:45;74,1
2015-11-22 19:00;74
2015-11-22 19:15;75,7
2015-11-22 19:30;78,35
2015-11-22 19:45;85,6
2015-11-22 20:00;86
2015-11-22 20:15;84,85
2015-11-22 20:30;82,65
2015-11-22 20:45;73,6
2015-11-22 21:00;75,2
2015-11-22 21:15;75,15
2015-11-22 21:30;78,25
2015-11-22 21:45;75,5
2015-11-22 22:00;70,45
2015-11-22 22:15;70,55
2015-11-22 22:30;70,75
2015-11-22 22:45;69,15
2015-11-22 23:00;69,65
2015-11-22 23:15;67,9
2015-11-22 23:30;67,05
2015-11-22 23:45;66,65

